RAX (USA 218)

导读

RAX(USA 218)是美国于2010年11月20日发射的卫星,作为美国太空项目的组成部分,该卫星承载着美国航天领域的特定任务需求。依托成熟的航天发射技术进入预定轨道,它承担着相关空间探测或技术试验类任务,延续了美国在近地轨道空间持续开展技术探索与应用部署的布局,是美国新世纪航天发射活动中一颗具备特定使命的人造卫星,至今仍在轨道运行中履行设计功能。

基本信息
目录编号:
37223
目录名称:
RAX (USA 218)
国际标识:
2010-062B
轨道中心:
EARTH
卫星名称:
RAX (USA 218)
卫星全名:
--
卫星状态:
在轨 (已飞行5774 天)
发射日期:
2010-11-20 UTC
国别 :
美国 (US)
星等 :
--
该卫星已列入 空间交会检测服务 Space Conjunction Data Service (SCDS) ,当前飞行风险评估等级: 无高风险
轨道信息
数据来源 国际轨道数据
星历时间: 2026-09-10T22:30:49+0800
18小时前
查看轨道信息
半长轴: 6942.55km
偏心率: 0.0015117
轨道倾角: 71.969°
近地点辐角 234.959°
升交点赤经 203.985°
平近点角 125.016°
近地点: 553.917km
远地点: 574.909km
周期: 95.949分钟
每日圈数: 15.008049
详细信息
使用方式:
暂无
2D轨道图
3D轨道图
轨道高度分析图
轨道倾角分析图
轨道综合分析图
查看轨道综合分析图
交会数据列表
事件ID 空间交会对象 最接近时刻(TCA) 交会距离 交会风险概率(CRP) 交会风险指数(CRI) 操作
CDM_260911-162403-722305-579028
2026-09-11T
16:24:06+0000
1.758 km
极远距离
3.452083E-6 低风险 0.46
CDM_260912-235703-722306-458423
2026-09-12T
23:57:56+0000
2.340 km
极远距离
2.013386E-6 低风险 0.41
CDM_260909-154503-722305-428624
2026-09-09T
15:45:30+0000
2.392 km
极远距离
1.871206E-6 低风险 0.4
CDM_260911-043103-178003-722321
2026-09-11T
04:31:14+0000
2.951 km
极远距离
1.256112E-6 低风险 0.37
CDM_260913-002703-722305-592422
2026-09-13T
00:27:51+0000
2.823 km
极远距离
6.284442E-7 极低风险 0.31
与全量物体交会距离演化趋势
与全量物体交会风险概率演化趋势